Time,TemperatureF,DewpointF,PressureIn,WindDirection,WindDirectionDegrees,WindSpeedMPH,WindSpeedGustMPH,Humidity,HourlyPrecipIn,Conditions,Clouds,dailyrainin,SolarRadiationWatts/m^2,SoftwareType,DateUTC
2013-07-22 00:22:00,54.0,53.0,-100.00,ENE,64,2.0,3.0,96,0.00,,,0.00,0.000000,,2013-07-22 07:22:00,
2013-07-22 00:33:00,54.0,53.0,-100.00,ENE,64,2.0,3.0,96,0.00,,,0.00,0.000000,,2013-07-22 07:33:00,
2013-07-22 00:43:00,54.0,53.0,-100.00,ENE,64,2.0,3.0,96,0.00,,,0.00,0.000000,,2013-07-22 07:43:00,
2013-07-22 00:52:00,54.0,53.0,-100.00,ENE,64,2.0,3.0,96,0.00,,,0.00,0.000000,,2013-07-22 07:52:00,
2013-07-22 01:22:00,51.0,50.0,-100.00,East,99,1.0,4.0,97,0.00,,,0.00,0.000000,,2013-07-22 08:22:00,
2013-07-22 01:32:00,51.0,50.0,-100.00,East,99,1.0,4.0,97,0.00,,,0.00,0.000000,,2013-07-22 08:32:00,
2013-07-22 01:43:00,51.0,50.0,-100.00,East,99,1.0,4.0,97,0.00,,,0.00,0.000000,,2013-07-22 08:43:00,
2013-07-22 01:52:00,51.0,50.0,-100.00,East,99,1.0,4.0,97,0.00,,,0.00,0.000000,,2013-07-22 08:52:00,
2013-07-22 02:22:00,52.0,51.0,-100.00,ESE,111,0.0,2.0,98,0.00,,,0.00,0.000000,,2013-07-22 09:22:00,
2013-07-22 02:33:00,52.0,51.0,-100.00,ESE,111,0.0,2.0,98,0.00,,,0.00,0.000000,,2013-07-22 09:33:00,
2013-07-22 02:42:00,52.0,51.0,-100.00,ESE,111,0.0,2.0,98,0.00,,,0.00,0.000000,,2013-07-22 09:42:00,
2013-07-22 02:52:00,52.0,51.0,-100.00,ESE,111,0.0,2.0,98,0.00,,,0.00,0.000000,,2013-07-22 09:52:00,
2013-07-22 03:11:00,53.0,52.0,-100.00,SSE,168,1.0,2.0,98,0.00,,,0.00,0.000000,,2013-07-22 10:11:00,
2013-07-22 03:22:00,53.0,52.0,-100.00,SSE,168,1.0,2.0,98,0.00,,,0.00,0.000000,,2013-07-22 10:22:00,
2013-07-22 03:32:00,53.0,52.0,-100.00,SSE,168,1.0,2.0,98,0.00,,,0.00,0.000000,,2013-07-22 10:32:00,
2013-07-22 03:43:00,53.0,52.0,-100.00,SSE,168,1.0,2.0,98,0.00,,,0.00,0.000000,,2013-07-22 10:43:00,
2013-07-22 04:22:00,53.0,52.0,-100.00,SSW,211,1.0,2.0,98,0.00,,,0.00,0.000000,,2013-07-22 11:22:00,
2013-07-22 04:32:00,53.0,52.0,-100.00,SSW,211,1.0,2.0,98,0.00,,,0.00,0.000000,,2013-07-22 11:32:00,
2013-07-22 04:43:00,53.0,52.0,-100.00,SSW,211,1.0,2.0,98,0.00,,,0.00,0.000000,,2013-07-22 11:43:00,
2013-07-22 04:52:00,53.0,52.0,-100.00,SSW,211,1.0,2.0,98,0.00,,,0.00,0.000000,,2013-07-22 11:52:00,
2013-07-22 05:11:00,52.0,51.0,-100.00,South,188,1.0,2.0,98,0.00,,,0.00,0.000000,,2013-07-22 12:11:00,
2013-07-22 05:22:00,52.0,51.0,-100.00,South,188,1.0,2.0,98,0.00,,,0.00,0.000000,,2013-07-22 12:22:00,
2013-07-22 05:32:00,52.0,51.0,-100.00,South,188,1.0,2.0,98,0.00,,,0.00,0.000000,,2013-07-22 12:32:00,
2013-07-22 05:43:00,52.0,51.0,-100.00,South,188,1.0,2.0,98,0.00,,,0.00,0.000000,,2013-07-22 12:43:00,
2013-07-22 05:52:00,52.0,51.0,-100.00,South,188,1.0,2.0,98,0.00,,,0.00,0.000000,,2013-07-22 12:52:00,
2013-07-22 05:53:00,54.0,53.0,-100.00,NE,52,0.0,2.0,98,0.00,,,0.00,0.000000,,2013-07-22 12:53:00,
2013-07-22 06:22:00,54.0,53.0,-100.00,NE,52,0.0,2.0,98,0.00,,,0.00,0.000000,,2013-07-22 13:22:00,
2013-07-22 06:32:00,54.0,53.0,-100.00,NE,52,0.0,2.0,98,0.00,,,0.00,0.000000,,2013-07-22 13:32:00,
2013-07-22 06:43:00,54.0,53.0,-100.00,NE,52,0.0,2.0,98,0.00,,,0.00,0.000000,,2013-07-22 13:43:00,
2013-07-22 06:53:00,54.0,53.0,-100.00,ENE,69,1.0,3.0,97,0.00,,,0.00,26.000000,,2013-07-22 13:53:00,
2013-07-22 07:22:00,54.0,53.0,-100.00,ENE,69,1.0,3.0,97,0.00,,,0.00,26.000000,,2013-07-22 14:22:00,
2013-07-22 07:32:00,54.0,53.0,-100.00,ENE,69,1.0,3.0,97,0.00,,,0.00,26.000000,,2013-07-22 14:32:00,
2013-07-22 07:42:00,54.0,53.0,-100.00,ENE,69,1.0,3.0,97,0.00,,,0.00,26.000000,,2013-07-22 14:42:00,
2013-07-22 08:22:00,56.0,52.0,-100.00,SW,221,1.0,3.0,87,0.00,,,0.00,96.000000,,2013-07-22 15:22:00,
2013-07-22 08:32:00,56.0,52.0,-100.00,SW,221,1.0,3.0,87,0.00,,,0.00,96.000000,,2013-07-22 15:32:00,
2013-07-22 08:42:00,56.0,52.0,-100.00,SW,221,1.0,3.0,87,0.00,,,0.00,96.000000,,2013-07-22 15:42:00,
2013-07-22 08:52:00,56.0,52.0,-100.00,SW,221,1.0,3.0,87,0.00,,,0.00,96.000000,,2013-07-22 15:52:00,
2013-07-22 09:21:00,58.0,51.0,-100.00,West,268,2.0,5.0,78,0.00,,,0.00,224.000000,,2013-07-22 16:21:00,
2013-07-22 09:32:00,58.0,51.0,-100.00,West,268,2.0,5.0,78,0.00,,,0.00,224.000000,,2013-07-22 16:32:00,
2013-07-22 09:43:00,58.0,51.0,-100.00,West,268,2.0,5.0,78,0.00,,,0.00,224.000000,,2013-07-22 16:43:00,
2013-07-22 10:23:00,64.0,53.0,-100.00,North,349,2.0,5.0,67,0.00,,,-99.99,316.000000,,2013-07-22 17:23:00,
2013-07-22 10:32:00,64.0,53.0,-100.00,North,349,2.0,5.0,67,0.00,,,-99.99,316.000000,,2013-07-22 17:32:00,
2013-07-22 10:43:00,64.0,53.0,-100.00,North,349,2.0,5.0,67,0.00,,,-99.99,316.000000,,2013-07-22 17:43:00,
2013-07-22 10:52:00,64.0,53.0,-100.00,North,349,2.0,5.0,67,0.00,,,-99.99,316.000000,,2013-07-22 17:52:00,
2013-07-22 10:53:00,73.0,55.0,-100.00,NW,315,2.0,6.0,53,0.00,,,0.00,896.000000,,2013-07-22 17:53:00,
2013-07-22 11:23:00,73.0,55.0,-100.00,NW,315,2.0,6.0,53,0.00,,,0.00,896.000000,,2013-07-22 18:23:00,
2013-07-22 11:33:00,73.0,55.0,-100.00,NW,315,2.0,6.0,53,0.00,,,0.00,896.000000,,2013-07-22 18:33:00,
2013-07-22 11:45:00,73.0,55.0,-100.00,NW,315,2.0,6.0,53,0.00,,,0.00,896.000000,,2013-07-22 18:45:00,
2013-07-22 11:53:00,78.0,56.0,-100.00,NW,313,2.0,8.0,47,0.00,,,0.00,1031.000000,,2013-07-22 18:53:00,
2013-07-22 12:43:00,78.0,56.0,-100.00,NW,313,2.0,8.0,47,0.00,,,0.00,1031.000000,,2013-07-22 19:43:00,
2013-07-22 13:32:00,80.0,57.0,-100.00,NNW,344,3.0,7.0,45,0.00,,,0.00,1108.000000,,2013-07-22 20:32:00,
2013-07-22 13:43:00,80.0,57.0,-100.00,NNW,344,3.0,7.0,45,0.00,,,0.00,1108.000000,,2013-07-22 20:43:00,
2013-07-22 13:52:00,80.0,57.0,-100.00,NNW,344,3.0,7.0,45,0.00,,,0.00,1108.000000,,2013-07-22 20:52:00,
2013-07-22 14:22:00,79.0,56.0,-100.00,NNW,332,3.0,10.0,46,0.00,,,0.00,1128.000000,,2013-07-22 21:22:00,
2013-07-22 14:32:00,79.0,56.0,-100.00,NNW,332,3.0,10.0,46,0.00,,,0.00,1128.000000,,2013-07-22 21:32:00,
2013-07-22 14:43:00,79.0,56.0,-100.00,NNW,332,3.0,10.0,46,0.00,,,0.00,1128.000000,,2013-07-22 21:43:00,
2013-07-22 14:52:00,79.0,56.0,-100.00,NNW,332,3.0,10.0,46,0.00,,,0.00,1128.000000,,2013-07-22 21:52:00,
2013-07-22 15:22:00,80.0,56.0,-100.00,WNW,291,3.0,12.0,44,0.00,,,0.00,1096.000000,,2013-07-22 22:22:00,
2013-07-22 15:32:00,80.0,56.0,-100.00,WNW,291,3.0,12.0,44,0.00,,,0.00,1096.000000,,2013-07-22 22:32:00,
2013-07-22 15:43:00,80.0,56.0,-100.00,WNW,291,3.0,12.0,44,0.00,,,0.00,1096.000000,,2013-07-22 22:43:00,
2013-07-22 15:52:00,80.0,56.0,-100.00,WNW,291,3.0,12.0,44,0.00,,,0.00,1096.000000,,2013-07-22 22:52:00,
2013-07-22 16:22:00,79.0,55.0,-100.00,South,179,3.0,13.0,43,0.00,,,0.00,1009.000000,,2013-07-22 23:22:00,
2013-07-22 16:32:00,79.0,55.0,-100.00,South,179,3.0,13.0,43,0.00,,,0.00,1009.000000,,2013-07-22 23:32:00,
2013-07-22 16:42:00,79.0,55.0,-100.00,South,179,3.0,13.0,43,0.00,,,0.00,1009.000000,,2013-07-22 23:42:00,
2013-07-22 16:52:00,79.0,55.0,-100.00,South,179,3.0,13.0,43,0.00,,,0.00,1009.000000,,2013-07-22 23:52:00,
2013-07-22 17:22:00,80.0,55.0,-100.00,East,92,4.0,14.0,43,0.00,,,0.00,862.000000,,2013-07-23 00:22:00,
2013-07-22 17:32:00,80.0,55.0,-100.00,East,92,4.0,14.0,43,0.00,,,0.00,862.000000,,2013-07-23 00:32:00,
2013-07-22 17:43:00,80.0,55.0,-100.00,East,92,4.0,14.0,43,0.00,,,0.00,862.000000,,2013-07-23 00:43:00,
2013-07-22 17:52:00,80.0,55.0,-100.00,East,92,4.0,14.0,43,0.00,,,0.00,862.000000,,2013-07-23 00:52:00,
2013-07-22 17:53:00,78.0,54.0,-100.00,North,349,3.0,13.0,43,0.00,,,0.00,679.000000,,2013-07-23 00:53:00,
2013-07-22 18:22:00,78.0,54.0,-100.00,North,349,3.0,13.0,43,0.00,,,0.00,679.000000,,2013-07-23 01:22:00,
2013-07-22 18:32:00,78.0,54.0,-100.00,North,349,3.0,13.0,43,0.00,,,0.00,679.000000,,2013-07-23 01:32:00,
2013-07-22 18:43:00,78.0,54.0,-100.00,North,349,3.0,13.0,43,0.00,,,0.00,679.000000,,2013-07-23 01:43:00,
2013-07-22 19:22:00,77.0,53.0,-100.00,SE,132,2.0,10.0,44,0.00,,,0.00,468.000000,,2013-07-23 02:22:00,
2013-07-22 19:33:00,77.0,53.0,-100.00,SE,132,2.0,10.0,44,0.00,,,0.00,468.000000,,2013-07-23 02:33:00,
2013-07-22 19:43:00,77.0,53.0,-100.00,SE,132,2.0,10.0,44,0.00,,,0.00,468.000000,,2013-07-23 02:43:00,
2013-07-22 19:52:00,77.0,53.0,-100.00,SE,132,2.0,10.0,44,0.00,,,0.00,468.000000,,2013-07-23 02:52:00,
2013-07-22 20:11:00,70.0,55.0,-100.00,NNE,32,2.0,8.0,59,0.00,,,0.00,117.000000,,2013-07-23 03:11:00,
2013-07-22 20:22:00,70.0,55.0,-100.00,NNE,32,2.0,8.0,59,0.00,,,0.00,117.000000,,2013-07-23 03:22:00,
2013-07-22 20:33:00,70.0,55.0,-100.00,NNE,32,2.0,8.0,59,0.00,,,0.00,117.000000,,2013-07-23 03:33:00,
2013-07-22 20:43:00,70.0,55.0,-100.00,NNE,32,2.0,8.0,59,0.00,,,0.00,117.000000,,2013-07-23 03:43:00,
2013-07-22 20:52:00,70.0,55.0,-100.00,NNE,32,2.0,8.0,59,0.00,,,0.00,117.000000,,2013-07-23 03:52:00,
2013-07-22 20:53:00,62.0,55.0,-100.00,NE,43,2.0,5.0,78,0.00,,,0.00,20.000000,,2013-07-23 03:53:00,
2013-07-22 21:21:00,62.0,55.0,-100.00,NE,43,2.0,5.0,78,0.00,,,0.00,20.000000,,2013-07-23 04:21:00,
2013-07-22 21:32:00,62.0,55.0,-100.00,NE,43,2.0,5.0,78,0.00,,,0.00,20.000000,,2013-07-23 04:32:00,
2013-07-22 21:42:00,62.0,55.0,-100.00,NE,43,2.0,5.0,78,0.00,,,0.00,20.000000,,2013-07-23 04:42:00,
2013-07-22 22:22:00,58.0,54.0,-100.00,NNE,32,2.0,5.0,88,0.00,,,0.00,0.000000,,2013-07-23 05:22:00,
2013-07-22 22:33:00,58.0,54.0,-100.00,NNE,32,2.0,5.0,88,0.00,,,0.00,0.000000,,2013-07-23 05:33:00,
2013-07-22 22:43:00,58.0,54.0,-100.00,NNE,32,2.0,5.0,88,0.00,,,0.00,0.000000,,2013-07-23 05:43:00,
2013-07-22 22:52:00,58.0,54.0,-100.00,NNE,32,2.0,5.0,88,0.00,,,0.00,0.000000,,2013-07-23 05:52:00,
2013-07-22 23:22:00,54.0,52.0,-100.00,ENE,67,1.0,3.0,92,0.00,,,0.00,0.000000,,2013-07-23 06:22:00,
2013-07-22 23:33:00,54.0,52.0,-100.00,ENE,67,1.0,3.0,92,0.00,,,0.00,0.000000,,2013-07-23 06:33:00,
2013-07-22 23:52:00,54.0,52.0,-100.00,ENE,67,1.0,3.0,92,0.00,,,0.00,0.000000,,2013-07-23 06:52:00,